Regional Weather Roundup
Issued by NWS

Home | Current Version | Previous Version | Text Only | Print | Product List | Glossary On
Versions: 1 2 3 4 5 6 7 8 9 10 11 12 13 14 15 16 17 18 19 20 21 22 23 24 25 26 27 28 29 30 31 32 33 34 35 36 37 38 39 40 41 42 43 44 45 46 47 48 49 50
000
ASUS43 KDTX 311610
RWRMI
MICHIGAN HOURLY REGIONAL WEATHER ROUNDUP
NATIONAL WEATHER SERVICE DETROIT/PONTIAC MI
1200 PM EDT THU JUL 31 2014

NOTE: "FAIR" INDICATES FEW OR NO CLOUDS BELOW 12,000 FEET WITH NO
SIGNIFICANT WEATHER AND/OR OBSTRUCTION TO VISIBILITY.

MIZ047>049-052>055-059>063-066>070-074>076-081>083-311700-
SOUTHEAST LOWER MICHIGAN

CITY           SKY/WX    TMP DP  RH WIND       PRES   REMARKS
ADRIAN         PTSUNNY   75  54  47 SW9       30.06S
ALMA           MOSUNNY   73  58  60 W7        30.01S
ANN ARBOR      PTSUNNY   75  55  49 SW12      30.04S
BAD AXE        SUNNY     70  58  66 SW12G18   29.99S
CARO           SUNNY     72  60  65 SW9       30.00R
DETROIT CITY   MOSUNNY   75  51  43 SW12      30.03S
DETROIT        PTSUNNY   73  55  53 SW13      30.05R
FLINT          MOSUNNY   73  57  57 W12       30.02R
GROSSE ILE     SUNNY     72  59  64 S9        30.04R
HILLSDALE      PTSUNNY   74  56  52 W8        30.06S
HOWELL         PTSUNNY   72  56  57 SW13      30.03S

CITY           SKY/WX    TMP DP  RH WIND       PRES   REMARKS
JACKSON        PTSUNNY   73  55  53 SW12G18   30.05R
LAMBERTVILLE   SUNNY     75  50  41 SW8       30.06S
LANSING        SUNNY     72  56  57 W16G22    30.03R
LAPEER         FAIR      71  54  54 W9G17     30.02S
MASON          PTSUNNY   72  58  61 W8G16     30.04S
MONROE         SUNNY     73  54  49 W9        30.04R
MT. CLEMENS    MOSUNNY   75  56  51 SW10      30.02S
PONTIAC        MOSUNNY   72  56  57 SW12      30.03S
PORT HOPE        N/A     70  53  54 VRB6      29.96F
PORT HURON     MOSUNNY   70  54  56 SW7       30.02S
TRI CITIES     SUNNY     72  59  63 W10       30.00S
TROY           SUNNY     74  52  47 SW12G17   30.04S
SAGINAW HB     SUNNY     72  55  56 W10       29.99S
$$
MIZ043>046-050>051-056>058-064>065-071>073-077>080-311700-
SOUTHWEST LOWER MICHIGAN

CITY           SKY/WX    TMP DP  RH WIND       PRES   REMARKS
BATTLE CREEK   MOSUNNY   75  58  55 W16G22    30.04S
BENTON HARBOR  SUNNY     74  57  55 SW14      30.04S
BIG RAPIDS     SUNNY     71  56  58 W7        30.00S
COLDWATER      MOSUNNY   75  58  54 SW10      30.05S
FREMONT        FAIR      73  57  57 W3        30.00S
HOLLAND        MOSUNNY   71  60  68 W12       30.04R
GRAND RAPIDS   MOSUNNY   76  60  57 SW12G23   30.02R
IONIA          PTSUNNY   73  59  59 W12       30.01S
KALAMAZOO      PTSUNNY   76  58  53 SW15      30.04S
LUDINGTON      SUNNY     69  61  74 SW5       30.01S
MARSHALL       MOSUNNY   73  57  58 SW12G18   30.04S
MOUNT PLEASANT SUNNY     73  58  60 W7        29.99S
MUSKEGON       SUNNY     69  58  67 W6        30.02R
SOUTH HAVEN    SUNNY     71  62  72 W10       30.04S
$$
MIZ016>042-311700-
NORTHERN LOWER MICHIGAN

CITY           SKY/WX    TMP DP  RH WIND       PRES   REMARKS
ALPENA         SUNNY     70  53  54 W6        29.96S
BEAVER ISLAND  SUNNY     67  59  74 SW13      29.95S
BELLAIRE       SUNNY     71  52  51 W5        29.96F
CADILLAC       SUNNY     72  54  53 W6        29.99S
CHARLEVOIX     SUNNY     72  55  53 W9        29.99S
FRANKFORT      SUNNY     67  58  73 W9        29.99S
GAYLORD        SUNNY     68  49  50 W9        29.98R
GRAYLING       SUNNY     74  51  44 NW12      29.99S
HARBOR SPRINGS SUNNY     69  58  69 W7        29.96S
HOUGHTON LAKE  SUNNY     68  55  63 SW8       29.99S
MANISTEE       SUNNY     68  57  68 W9        30.00S
OSCODA         MOSUNNY   71  55  55 SW6       29.95S
PELLSTON       SUNNY     71  53  52 W9        29.95S
ROGERS CITY    MOSUNNY   70  56  61 SW8       29.96S
TRAVERSE CITY  SUNNY     73  51  46 VRB6      29.96S
$$
MIZ007>008-015-311700-
EASTERN UPPER MICHIGAN

CITY           SKY/WX    TMP DP  RH WIND       PRES   REMARKS
KINROSS        PTSUNNY   70  54  56 SW8G17    29.92S
MACKINAC ISLAN MOSUNNY   65  58  75 SW8G17    29.93S
NEWBERRY       PTSUNNY   68  54  61 W13G20    29.92S
S. S. MARIE    CLOUDY    66  54  65 W5        29.91S
MUNISING         N/A     66  56  70 N10       29.93R
$$
MIZ004>006-011>014-085-311700-
CENTRAL UPPER MICHIGAN

CITY           SKY/WX    TMP DP  RH WIND       PRES   REMARKS
MANISTIQUE     SUNNY     65  59  80 S7        29.94R
ESCANABA       SUNNY     72  57  60 S6        29.94S
MENOMINEE      SUNNY     70  59  68 W5        29.95F
SAWYER-GWINN   PTSUNNY   72  50  46 NW13G18   29.94R
$$
MIZ001>003-009>011-084-311700-
WESTERN UPPER MICHIGAN

CITY           SKY/WX    TMP DP  RH WIND       PRES   REMARKS
IRON MOUNTAIN  SUNNY     73  54  51 NW9       29.95F
HOUGHTON       SUNNY     68  53  58 W13       29.94R
COPPER HARBOR    N/A     64  57  78 N13       29.92R
$$

ABBREVIATIONS USED IN REMARKS
   TC - TEMPERATURE IN CELSIUS
  WCI - WIND CHILL INDEX
   HX - HEAT INDEX
  VSB - VISIBILITY




USA.gov is the U.S. government's official web portal to all federal, state and local government web resources and services.